STARLINK-5622, 55358

Orbit data source: Space-Track

STARLINK-5622, 55358 is a payload satellite owned by SpaceX/Seattle (US) in LEO that was launched on Thu, 26 Jan 2023 UTC via an FALCON 9 launch vehicle from the Air Force Eastern Test Range (AFETR). Payload-class satellites include a variety of spacecraft equipped with specific instruments for various scientific and technological missions. These include communications satellites like Starlink; space stations such as the ISS; scientific satellites like the Hubble; Earth observation satellites from companies like Planet Labs, Umbra, and HawkEye 360; GPS; miniature CubeSats for education and research; and military/defense satellites.

Loading next visibility...
Identifier
55358, 2023-013AD
Orbit
LEO
Country
Flag of USUS
Related business
Manufacturer
SpaceX/Seattle
Mission
Operational Commercial Communications
Bus & Motor
STARLINK, Unknown motor
Mass
305 kg wet, ~290 kg dry
Launch date (UTC)
2023-01-26 (3 years ago)
Launch vehicle
FALCON 9
Launch site
Air Force Eastern Test Range (AFETR)
Object type
Payload
Rocket body
Debris
Shape & HBR
Box + 1 Pan, 10.1 m
Radar Cross Section
13.562 m², Large (>1 m²)

Expand to show TLE details & history
Last TLE update: 2 days ago

TLE from 2 days ago
0 STARLINK-5622
1 55358U 23013AD  26171.13998635 -.00000117  00000-0  52808-5 0  9994
2 55358  43.0038  84.6663 0001127 275.7159  84.3564 15.27574789187344
Epoch: 2026-06-20T03:21Z
TLE epoch observation values (Epoch: 2026-06-20T03:21:34.820Z)
Latitude
-0.00004°
Longitude
125.91229°
Altitude
482.765 km
Speed
7.626 km/s
True Right ascension
05h 38m 39s
True Declination
0° 00' 00"
Sunlit
Object was in daylight at epoch
Visualization orbit readout
Latitude
Unknown
Longitude
Unknown
Altitude
Unknown
Speed
Unknown
Apparent Right ascension
Unknown
Apparent Declination
Unknown
Sunlit
N/A
Visualization observer readout
Local Sidereal Time
21:41:22
Azimuth
Unknown
Elevation
Unknown
Doppler factor
Unknown
Orbital elements
Apogee altitude
485.783 km
Perigee altitude
484.236 km
Semi-major axis
6,863.146 km
Eccentricity
0.00011
Inclination
43.0038°
RAAN
84.6663°
Arg. of periapsis
275.7159°
True anomaly
84.36925°
Mean anomaly
84.3564°
Eccentric anomaly
84.36283°
Mean motion
3.81732 °/min
Orbital period
94.31 mins
BSTAR
0.0000052808
Loading maneuver chart data...
Computing Atmospheric mass density...
Loading historical data...
Loading historical data...
Loading historical data...
Loading historical data...
Loading historical data...
Loading historical data...
Loading historical data...

Documentation

Showing up to 5 results
|